Location: Silent Lake
(44.9206°N, 78.0708°W)
Time: 05:26:57
(UTC-04:00)

Cosmos 1455 - Pass Details

Date: 19 April 2018
Orbit: 500 x 526 km, 82.5° (Epoch: 19 September)

Event Time Altitude Azimuth Distance (km) Brightness Sun altitude
Rises 20:31:05 0° 156° (SSE) 2,617 5.3 -5.5°
Reaches altitude 10° 20:33:30 10° 141° (SE) 1,742 4.3 -5.9°
Maximum altitude 20:36:32 23° 89° (E) 1,146 3.4 -6.4°
Drops below altitude 10° 20:39:36 10° 36° (NE) 1,766 4.8 -6.9°
Sets 20:42:04 0° 22° (NNE) 2,664 5.9 -7.3°
